カタログに戻る

CZ-6A DEB

運用中PO
NORAD 61096·DEBRIS·🇨🇳 China

打ち上げ Aug 6, 2024 から Taiyuan Satellite Launch Center

Loading…

次のパス (今後24時間)

TLE

最新Source: Space-Track

元期: Sep 14, 2026, 06:50 UTC

1 61096U 24140NN  26257.28512555  .00002061  00000-0  42495-3 0  9994
2 61096  89.0491 264.6391 0095206 321.6604  37.7863 14.57290981108548

AllMySatでCZ-6A DEBをリアルタイム追跡

Download on the App Store